Total_Precipitation_Accumulation
0.14 0.15 0.19 0.26 0.29 0.32 0.35 0.36 0.36 0.41 0.46 0.47 0.43 0.42 0.45 0.53 0.62 0.69 0.69 0.71 0.75 0.75 0.76 0.78 0.78 0.77 0.80 0.79 0.79 0.79 0.84 1.02 1.04 0.49 0.33 0.39 0.52 0.57 0.56 0.54 0.54 0.57 0.58
0.16 0.17 0.19 0.25 0.32 0.37 0.41 0.43 0.46 0.48 0.51 0.54 0.54 0.51 0.46 0.46 0.55 0.63 0.67 0.69 0.74 0.76 0.78 0.84 0.85 0.85 0.88 0.89 0.94 0.93 0.90 0.94 1.05 0.77 0.45 0.43 0.52 0.58 0.64 0.64 0.58 0.57 0.58
0.18 0.19 0.22 0.26 0.34 0.41 0.47 0.50 0.50 0.54 0.59 0.60 0.62 0.62 0.58 0.57 0.62 0.65 0.68 0.70 0.71 0.71 0.73 0.80 0.85 0.92 0.97 0.95 0.96 0.96 0.91 0.85 0.89 0.88 0.61 0.48 0.52 0.58 0.65 0.69 0.67 0.67 0.64
0.25 0.26 0.31 0.37 0.42 0.47 0.52 0.53 0.54 0.56 0.61 0.66 0.67 0.68 0.70 0.74 0.87 0.90 0.80 0.79 0.74 0.71 0.70 0.75 0.82 0.94 1.03 1.11 1.19 1.10 1.01 1.05 1.05 1.04 0.85 0.66 0.61 0.62 0.78 0.83 0.81 0.77 0.74
0.39 0.41 0.41 0.42 0.46 0.46 0.48 0.51 0.53 0.57 0.60 0.62 0.63 0.66 0.72 0.85 1.15 1.18 1.00 0.90 0.83 0.78 0.75 0.75 0.79 0.95 1.17 1.38 1.51 1.46 1.42 1.46 1.40 1.35 1.17 0.95 0.80 0.81 0.89 0.88 0.93 0.84 0.83
0.48 0.50 0.48 0.44 0.43 0.47 0.48 0.48 0.52 0.56 0.57 0.57 0.57 0.59 0.68 0.86 1.26 1.30 1.09 0.87 0.83 0.83 0.82 0.76 0.74 0.82 0.95 1.13 1.36 1.44 1.53 1.65 1.70 1.65 1.51 1.29 0.99 0.88 0.93 1.10 1.22 1.23 1.10
0.49 0.53 0.55 0.48 0.43 0.46 0.47 0.46 0.46 0.46 0.48 0.49 0.50 0.50 0.52 0.69 1.11 1.20 1.05 0.81 0.73 0.74 0.74 0.70 0.70 0.69 0.75 0.73 0.86 0.96 1.06 1.24 1.48 1.66 1.74 1.42 1.13 1.02 1.19 1.42 1.46 1.44 1.20
0.47 0.47 0.47 0.42 0.37 0.39 0.43 0.42 0.39 0.39 0.43 0.44 0.45 0.44 0.41 0.46 0.85 1.12 1.01 0.71 0.65 0.67 0.67 0.69 0.70 0.67 0.67 0.75 0.83 0.87 0.81 0.84 1.06 1.31 1.47 1.33 1.23 1.25 1.45 1.73 1.87 1.92 1.59
0.37 0.35 0.35 0.32 0.31 0.35 0.40 0.37 0.34 0.33 0.35 0.38 0.40 0.44 0.42 0.41 0.66 1.05 1.09 0.74 0.70 0.65 0.66 0.79 0.84 0.75 0.79 0.97 1.10 1.07 0.88 0.75 0.82 1.14 1.41 1.46 1.50 1.70 1.93 2.30 2.57 2.65 2.33
0.27 0.27 0.32 0.29 0.27 0.32 0.37 0.36 0.34 0.32 0.35 0.37 0.40 0.47 0.47 0.41 0.56 0.97 1.24 0.87 0.77 0.68 0.68 0.81 1.07 1.04 1.02 1.10 1.17 1.20 1.14 0.87 0.78 0.84 0.94 1.05 1.10 1.18 1.55 1.92 2.19 2.44 2.40
0.21 0.23 0.30 0.31 0.29 0.30 0.32 0.34 0.34 0.35 0.36 0.38 0.39 0.44 0.47 0.43 0.47 0.78 1.25 1.15 0.92 0.82 0.81 0.87 1.00 1.09 1.09 1.11 1.18 1.16 1.20 1.14 1.10 1.08 1.02 0.96 0.99 1.11 1.28 1.54 1.80 2.07 2.28
0.18 0.21 0.26 0.33 0.31 0.30 0.31 0.32 0.32 0.36 0.39 0.40 0.41 0.44 0.46 0.47 0.50 0.67 1.02 1.24 1.16 0.96 0.90 0.82 0.90 1.03 1.09 1.12 1.08 1.10 1.18 1.23 1.17 1.14 1.08 1.00 0.97 1.03 1.11 1.26 1.51 1.68 1.82
0.16 0.20 0.25 0.31 0.30 0.29 0.31 0.32 0.32 0.35 0.41 0.45 0.47 0.49 0.48 0.50 0.54 0.69 0.81 0.93 1.06 0.99 0.96 1.10 1.07 1.03 0.99 0.95 0.94 0.99 1.01 0.99 1.04 1.02 0.92 0.83 0.79 0.84 0.95 1.12 1.30 1.48 1.62
0.16 0.21 0.26 0.30 0.32 0.31 0.30 0.31 0.33 0.39 0.54 0.62 0.61 0.59 0.54 0.53 0.62 0.82 0.87 0.84 0.92 0.96 0.96 1.04 1.04 0.94 0.84 0.80 0.82 0.83 0.83 0.90 1.00 1.00 0.88 0.78 0.74 0.82 0.93 1.03 1.20 1.35 1.59
0.19 0.23 0.28 0.32 0.33 0.34 0.32 0.32 0.36 0.41 0.65 0.91 0.87 0.85 0.86 0.83 0.91 1.21 1.23 1.12 1.13 1.16 1.17 1.16 1.05 0.92 0.83 0.75 0.71 0.68 0.69 0.80 0.92 0.91 0.92 0.91 0.87 0.90 0.93 0.97 1.13 1.29 1.48
0.22 0.24 0.28 0.33 0.35 0.34 0.34 0.34 0.36 0.40 0.51 0.60 0.67 0.80 0.81 0.96 1.10 1.09 1.07 1.07 1.11 1.14 1.17 1.10 0.93 0.81 0.76 0.72 0.71 0.71 0.69 0.71 0.75 0.81 0.88 0.91 0.93 0.96 0.96 0.97 1.11 1.28 1.35
0.26 0.29 0.33 0.35 0.37 0.37 0.39 0.40 0.40 0.37 0.38 0.43 0.49 0.57 0.71 0.89 0.95 0.95 1.00 0.96 0.95 0.97 0.97 0.86 0.77 0.75 0.72 0.70 0.70 0.70 0.68 0.64 0.70 0.80 0.88 0.92 0.95 0.99 1.01 1.01 1.06 1.17 1.23
0.30 0.33 0.37 0.39 0.40 0.41 0.43 0.43 0.43 0.44 0.43 0.42 0.43 0.48 0.58 0.71 0.81 0.85 0.91 0.88 0.84 0.78 0.76 0.76 0.74 0.71 0.70 0.70 0.70 0.71 0.69 0.68 0.71 0.77 0.81 0.85 0.90 0.99 1.00 0.95 0.97 1.10 1.19
0.28 0.31 0.35 0.38 0.40 0.42 0.45 0.46 0.45 0.44 0.45 0.46 0.46 0.49 0.56 0.62 0.69 0.77 0.78 0.73 0.73 0.70 0.68 0.69 0.67 0.71 0.73 0.71 0.69 0.69 0.71 0.73 0.71 0.73 0.75 0.76 0.80 0.91 0.94 0.88 0.91 1.02 1.22
0.26 0.33 0.39 0.40 0.42 0.43 0.45 0.48 0.49 0.50 0.50 0.50 0.53 0.58 0.66 0.72 0.74 0.73 0.69 0.67 0.69 0.68 0.66 0.69 0.67 0.68 0.72 0.74 0.73 0.71 0.73 0.71 0.70 0.70 0.71 0.72 0.76 0.86 0.90 0.87 0.93 1.03 1.12
0.29 0.33 0.39 0.40 0.41 0.44 0.48 0.53 0.55 0.58 0.59 0.57 0.54 0.58 0.86 0.99 0.87 0.73 0.69 0.71 0.75 0.77 0.74 0.72 0.67 0.63 0.65 0.69 0.73 0.72 0.72 0.68 0.66 0.71 0.73 0.73 0.77 0.85 0.85 0.90 0.94 0.99 1.08
0.36 0.39 0.41 0.43 0.43 0.47 0.53 0.55 0.57 0.59 0.60 0.58 0.54 0.54 0.63 0.65 0.65 0.64 0.65 0.69 0.75 0.79 0.80 0.81 0.74 0.63 0.63 0.72 0.78 0.80 0.74 0.66 0.63 0.71 0.78 0.77 0.79 0.84 0.87 0.92 0.94 1.01 1.07
0.42 0.45 0.45 0.44 0.45 0.51 0.52 0.49 0.53 0.56 0.58 0.56 0.54 0.54 0.55 0.58 0.61 0.65 0.68 0.70 0.75 0.79 0.78 0.78 0.76 0.65 0.59 0.65 0.72 0.82 0.85 0.74 0.70 0.81 0.93 0.91 0.86 0.87 0.90 0.93 0.93 0.99 1.03
0.49 0.50 0.50 0.48 0.48 0.50 0.51 0.50 0.51 0.53 0.56 0.57 0.56 0.56 0.58 0.59 0.60 0.64 0.67 0.69 0.73 0.75 0.75 0.75 0.72 0.66 0.61 0.63 0.66 0.69 0.74 0.83 1.01 1.14 1.11 1.10 1.01 0.91 0.91 0.94 0.92 0.92 0.97
0.50 0.51 0.52 0.53 0.54 0.54 0.55 0.52 0.51 0.53 0.56 0.57 0.58 0.57 0.57 0.58 0.59 0.62 0.65 0.68 0.72 0.73 0.71 0.70 0.69 0.66 0.62 0.60 0.60 0.63 0.73 0.90 1.12 1.43 1.61 1.54 1.26 1.02 0.98 0.98 0.94 0.93 0.98
0.48 0.47 0.48 0.51 0.54 0.57 0.61 0.60 0.58 0.58 0.61 0.60 0.59 0.60 0.62 0.63 0.63 0.65 0.68 0.74 0.79 0.77 0.73 0.70 0.66 0.62 0.61 0.61 0.60 0.65 0.79 0.99 1.21 1.46 1.84 1.99 1.61 1.21 1.07 1.08 1.01 1.00 1.05